Weather History for Khon Kaen, Thailand

Change the Weather History Date:

Saturday, May 5, 2012

  Actual Average Record
Temperature  
Mean Temperature 84 °F -  
Max Temperature 95 °F 94 °F - ()
Min Temperature 73 °F 77 °F - ()
Cooling Degree Days 19    
Growing Degree Days 34 (Base 50)    
Moisture  
Dew Point 71 °F    
Average Humidity 60    
Maximum Humidity 83    
Minimum Humidity 37    
Precipitation  
Precipitation 0.00 in 0.23 in - ()
Sea Level Pressure  
Sea Level Pressure 29.67 in    
Wind  
Wind Speed 4 mph ()    
Max Wind Speed 12 mph    
Max Gust Speed 20 mph    
Visibility 6.2 miles    
Events Thunderstorm    
T = Trace of Precipitation, MM = Missing Value Source: Averaged Metar Reports

Daily Weather History Graph

Daily Weather History Graph

Search for Another Location

Airport:

Trip Planner

Search our weather history database for the weather conditions in past years. The results will help you decide how hot, cold, wet, or windy it might be!

Date:

Astronomy

May. 05, 2012 Rise Set
Actual Time 5:42 AM ICT 6:29 PM ICT
Civil Twilight 5:19 AM ICT 6:51 PM ICT
Nautical Twilight 4:52 AM ICT 7:18 PM ICT
Astronomical Twilight 4:25 AM ICT 7:45 PM ICT
Moon 5:42 PM ICT (5/5) 4:34 AM ICT (5/5)
Length of Visible Light 13h 32m
Length of Day
12h 47m
Waxing Gibbous, 99% of the Moon is Illuminated
May 5
Waxing Gibbous
May 6
Full
May 13
Last Quarter
May 21
New
May 29
First Quarter

Hourly Weather History & Observations

Time (ICT) Temp. Heat Index Dew Point Humidity Pressure Visibility Wind Dir Wind Speed Gust Speed Precip Events Conditions
1:00 AM 80 °F - 71 °F 69% 29.69 in 6 mi SSW 2.3 mph - -   Clear
6:00 AM 77.0 °F - 69.8 °F 78% 29.68 in 6.2 mi ENE 3.5 mph - N/A   Mostly Cloudy
7:00 AM 77 °F - 72 °F 81% 29.71 in 6 mi Calm Calm - -   Scattered Clouds
7:00 AM 77.0 °F - 71.6 °F 83% 29.71 in 6.2 mi Calm Calm - N/A   Mostly Cloudy
8:00 AM 80.6 °F 84.6 °F 71.6 °F 74% 29.74 in 6.2 mi South 3.5 mph - N/A   Mostly Cloudy
9:00 AM 82.4 °F 86.3 °F 69.8 °F 66% 29.74 in 6.2 mi Variable 2.3 mph - N/A   Mostly Cloudy
10:00 AM 84.2 °F 89.6 °F 71.6 °F 66% 29.74 in 6.2 mi ENE 3.5 mph - N/A   Mostly Cloudy
11:00 AM 89.6 °F 94.7 °F 69.8 °F 52% 29.74 in 6.2 mi SE 4.6 mph - N/A   Mostly Cloudy
12:00 PM 93.2 °F 97.7 °F 68.0 °F 44% 29.71 in 6.2 mi ESE 6.9 mph - N/A   Mostly Cloudy
1:00 PM 94 °F - 71 °F 37% 29.71 in 7 mi SW 5.8 mph - -   Scattered Clouds
1:00 PM 93.2 °F 98.8 °F 69.8 °F 46% 29.68 in 6.2 mi SW 6.9 mph - N/A   Mostly Cloudy
2:00 PM 95.0 °F 99.5 °F 68.0 °F 41% 29.65 in 6.2 mi SW 8.1 mph - N/A   Mostly Cloudy
3:00 PM 95.0 °F 99.5 °F 68.0 °F 41% 29.59 in 6.2 mi SSW 8.1 mph - N/A   Mostly Cloudy
4:00 PM 93.2 °F 100.5 °F 71.6 °F 49% 29.56 in 6.2 mi WSW 6.9 mph - N/A   Mostly Cloudy
5:00 PM 93.2 °F 100.5 °F 71.6 °F 49% 29.56 in 6.2 mi West 9.2 mph - N/A   Mostly Cloudy
6:00 PM 86.0 °F 93.4 °F 73.4 °F 66% 29.59 in 6.2 mi ENE 11.5 mph 19.6 mph N/A Thunderstorm Thunderstorm
7:00 PM 83 °F - 71 °F 58% 29.64 in 6 mi NE 6.9 mph - - Thunderstorm Light Thunderstorm
7:00 PM 82.4 °F 87.2 °F 71.6 °F 70% 29.62 in 6.2 mi NE 6.9 mph - N/A   Mostly Cloudy
8:00 PM 84.2 °F 88.4 °F 69.8 °F 62% 29.71 in 6.2 mi SSE 9.2 mph 18.4 mph N/A Thunderstorm Thunderstorm